QPF
0.00 0.00 0.01 0.01 0.01 0.01 0.01 0.02 0.05 0.06 0.07 0.07 0.08 0.08 0.07 0.06 0.06 0.06 0.04 0.05 0.04 0.04 0.05 0.06 0.09 0.09 0.08 0.07 0.07 0.08 0.11 0.11 0.09 0.13 0.13 0.09 0.08 0.10 0.04 0.04 0.04 0.06 0.06
0.00 0.00 0.00 0.00 0.00 0.01 0.01 0.03 0.05 0.05 0.05 0.06 0.07 0.07 0.06 0.06 0.05 0.05 0.05 0.03 0.03 0.04 0.04 0.08 0.10 0.09 0.10 0.09 0.09 0.12 0.11 0.10 0.10 0.15 0.17 0.15 0.13 0.10 0.06 0.05 0.06 0.07 0.07
0.00 0.00 0.01 0.00 0.00 0.00 0.01 0.02 0.04 0.05 0.05 0.06 0.06 0.06 0.07 0.07 0.08 0.09 0.08 0.04 0.02 0.04 0.05 0.06 0.08 0.10 0.09 0.13 0.12 0.13 0.13 0.12 0.13 0.14 0.18 0.20 0.20 0.15 0.11 0.08 0.07 0.07 0.09
0.00 0.00 0.00 0.00 0.00 0.00 0.00 0.02 0.03 0.05 0.05 0.06 0.06 0.06 0.07 0.08 0.08 0.08 0.07 0.07 0.04 0.02 0.03 0.03 0.05 0.07 0.08 0.13 0.10 0.13 0.13 0.14 0.15 0.16 0.16 0.16 0.20 0.20 0.18 0.14 0.11 0.12 0.14
0.00 0.00 0.00 0.00 0.00 0.00 0.00 0.01 0.03 0.04 0.04 0.04 0.05 0.04 0.05 0.06 0.07 0.08 0.08 0.08 0.07 0.04 0.02 0.04 0.06 0.06 0.08 0.11 0.11 0.13 0.12 0.14 0.15 0.17 0.17 0.19 0.22 0.19 0.20 0.20 0.18 0.16 0.14
0.00 0.00 0.00 0.00 0.00 0.00 0.00 0.01 0.02 0.03 0.04 0.04 0.05 0.04 0.07 0.09 0.11 0.10 0.10 0.08 0.08 0.07 0.05 0.05 0.08 0.08 0.11 0.12 0.14 0.13 0.13 0.15 0.17 0.17 0.16 0.19 0.19 0.19 0.19 0.18 0.18 0.18 0.16
0.00 0.00 0.00 0.00 0.01 0.01 0.01 0.03 0.03 0.03 0.03 0.05 0.06 0.06 0.08 0.08 0.07 0.06 0.08 0.08 0.08 0.06 0.07 0.09 0.11 0.11 0.12 0.11 0.14 0.13 0.12 0.14 0.16 0.16 0.17 0.19 0.18 0.15 0.16 0.16 0.14 0.13 0.10
0.00 0.00 0.00 0.00 0.01 0.01 0.02 0.04 0.04 0.03 0.05 0.06 0.08 0.09 0.08 0.07 0.06 0.08 0.08 0.08 0.07 0.07 0.07 0.08 0.07 0.08 0.08 0.09 0.12 0.12 0.13 0.14 0.14 0.13 0.17 0.16 0.14 0.12 0.13 0.13 0.12 0.11 0.11
0.00 0.00 0.00 0.00 0.00 0.01 0.02 0.04 0.07 0.05 0.05 0.05 0.05 0.06 0.07 0.08 0.08 0.09 0.09 0.09 0.10 0.09 0.10 0.07 0.07 0.07 0.08 0.09 0.11 0.12 0.13 0.14 0.12 0.12 0.13 0.11 0.09 0.08 0.07 0.07 0.08 0.09 0.10
0.00 0.00 0.01 0.00 0.01 0.01 0.02 0.02 0.04 0.04 0.04 0.03 0.03 0.04 0.07 0.07 0.07 0.07 0.08 0.09 0.08 0.08 0.10 0.08 0.06 0.06 0.07 0.09 0.10 0.11 0.11 0.10 0.10 0.09 0.10 0.10 0.07 0.07 0.05 0.05 0.07 0.09 0.10
0.01 0.01 0.01 0.00 0.00 0.01 0.01 0.01 0.03 0.03 0.02 0.02 0.02 0.03 0.04 0.05 0.08 0.08 0.07 0.08 0.06 0.06 0.06 0.07 0.07 0.07 0.08 0.08 0.09 0.09 0.08 0.07 0.07 0.08 0.10 0.10 0.09 0.09 0.07 0.07 0.08 0.10 0.10
0.00 0.01 0.00 0.00 0.01 0.01 0.01 0.01 0.01 0.01 0.01 0.01 0.02 0.02 0.02 0.05 0.10 0.10 0.08 0.08 0.08 0.08 0.08 0.08 0.09 0.09 0.07 0.07 0.06 0.05 0.05 0.05 0.05 0.06 0.09 0.09 0.09 0.09 0.07 0.07 0.07 0.08 0.09
0.00 0.00 0.01 0.02 0.03 0.01 0.01 0.01 0.00 0.00 0.01 0.01 0.01 0.01 0.02 0.04 0.07 0.08 0.07 0.07 0.09 0.09 0.09 0.08 0.08 0.07 0.07 0.06 0.05 0.05 0.06 0.05 0.05 0.05 0.06 0.05 0.05 0.05 0.06 0.07 0.07 0.07 0.09
0.00 0.00 0.00 0.02 0.02 0.01 0.01 0.01 0.00 0.00 0.00 0.00 0.01 0.01 0.01 0.02 0.03 0.06 0.08 0.09 0.08 0.08 0.07 0.06 0.06 0.06 0.05 0.05 0.05 0.06 0.06 0.05 0.03 0.03 0.03 0.03 0.03 0.03 0.05 0.06 0.07 0.07 0.08
0.00 0.00 0.00 0.00 0.01 0.01 0.01 0.01 0.01 0.00 0.01 0.01 0.02 0.02 0.02 0.02 0.03 0.05 0.05 0.05 0.05 0.05 0.04 0.04 0.03 0.03 0.04 0.04 0.04 0.05 0.04 0.03 0.04 0.03 0.03 0.03 0.04 0.04 0.04 0.04 0.04 0.04 0.04
0.00 0.00 0.00 0.00 0.00 0.00 0.00 0.00 0.01 0.01 0.02 0.03 0.03 0.04 0.04 0.03 0.04 0.04 0.03 0.02 0.01 0.02 0.02 0.02 0.02 0.03 0.03 0.02 0.02 0.03 0.04 0.04 0.04 0.04 0.04 0.04 0.05 0.04 0.04 0.03 0.02 0.02 0.03
0.01 0.00 0.00 0.00 0.00 0.00 0.00 0.00 0.00 0.01 0.02 0.02 0.03 0.04 0.04 0.04 0.04 0.03 0.03 0.01 0.01 0.01 0.01 0.01 0.01 0.01 0.01 0.01 0.01 0.01 0.03 0.04 0.05 0.04 0.04 0.04 0.03 0.03 0.03 0.02 0.02 0.02 0.01
0.00 0.00 0.00 0.00 0.01 0.00 0.00 0.00 0.01 0.01 0.02 0.02 0.03 0.04 0.04 0.04 0.03 0.03 0.02 0.02 0.01 0.01 0.01 0.01 0.01 0.01 0.01 0.00 0.01 0.01 0.01 0.03 0.03 0.03 0.03 0.04 0.04 0.03 0.03 0.03 0.03 0.02 0.01
0.01 0.01 0.01 0.01 0.01 0.01 0.00 0.01 0.01 0.01 0.02 0.02 0.03 0.04 0.04 0.03 0.02 0.02 0.02 0.02 0.01 0.01 0.01 0.01 0.01 0.01 0.01 0.00 0.01 0.01 0.01 0.01 0.02 0.03 0.04 0.04 0.06 0.06 0.05 0.04 0.02 0.01 0.00
0.01 0.02 0.01 0.01 0.01 0.00 0.01 0.01 0.01 0.01 0.01 0.02 0.03 0.06 0.05 0.03 0.01 0.01 0.01 0.01 0.01 0.01 0.01 0.01 0.01 0.01 0.01 0.01 0.00 0.01 0.00 0.01 0.02 0.03 0.04 0.03 0.02 0.02 0.02 0.01 0.01 0.01 0.01
0.01 0.01 0.01 0.02 0.02 0.01 0.01 0.01 0.01 0.01 0.01 0.02 0.01 0.03 0.02 0.02 0.01 0.01 0.01 0.01 0.00 0.00 0.01 0.01 0.01 0.00 0.01 0.01 0.01 0.01 0.01 0.01 0.01 0.01 0.02 0.02 0.01 0.00 0.01 0.01 0.01 0.01 0.01
0.01 0.01 0.01 0.02 0.02 0.02 0.02 0.02 0.01 0.01 0.01 0.02 0.01 0.01 0.01 0.01 0.01 0.01 0.01 0.00 0.00 0.00 0.01 0.01 0.01 0.01 0.01 0.01 0.01 0.01 0.00 0.00 0.01 0.01 0.00 0.00 0.00 0.00 0.00 0.00 0.00 0.00 0.00
0.01 0.01 0.01 0.02 0.03 0.03 0.03 0.02 0.02 0.02 0.02 0.02 0.02 0.02 0.01 0.01 0.01 0.01 0.01 0.01 0.01 0.01 0.01 0.01 0.01 0.01 0.00 0.00 0.00 0.00 0.00 0.00 0.00 0.01 0.00 0.00 0.00 0.00 0.00 0.00 0.00 0.00 0.00
0.01 0.02 0.03 0.03 0.03 0.04 0.03 0.03 0.02 0.02 0.02 0.03 0.03 0.03 0.02 0.02 0.02 0.02 0.01 0.01 0.01 0.01 0.01 0.01 0.01 0.01 0.01 0.01 0.00 0.00 0.00 0.00 0.00 0.00 0.00 0.00 0.00 0.00 0.00 0.00 0.00 0.00 0.00
0.02 0.02 0.02 0.02 0.02 0.02 0.02 0.02 0.01 0.01 0.03 0.03 0.03 0.04 0.04 0.04 0.03 0.02 0.02 0.01 0.01 0.00 0.00 0.01 0.01 0.01 0.01 0.00 0.00 0.01 0.01 0.00 0.00 0.00 0.01 0.01 0.00 0.00 0.00 0.00 0.00 0.00 0.00
0.03 0.02 0.02 0.01 0.01 0.02 0.03 0.03 0.02 0.02 0.02 0.02 0.02 0.02 0.02 0.03 0.03 0.02 0.02 0.01 0.01 0.00 0.00 0.00 0.00 0.00 0.00 0.00 0.00 0.00 0.00 0.00 0.01 0.00 0.01 0.01 0.01 0.01 0.00 0.00 0.01 0.01 0.01
MSLP
1011.44 1011.84 1012.15 1012.39 1012.56 1012.71 1012.88 1013.09 1013.35 1013.66 1013.98 1014.29 1014.55 1014.73 1014.83 1014.84 1014.78 1014.70 1014.61 1014.54 1014.51 1014.53 1014.59 1014.69 1014.81 1014.95 1015.11 1015.29 1015.49 1015.72 1015.97 1016.23 1016.48 1016.70 1016.88 1016.99 1017.03 1017.01 1016.94 1016.85 1016.77 1016.73 1016.75
1011.27 1011.74 1012.12 1012.39 1012.58 1012.73 1012.88 1013.06 1013.32 1013.63 1013.97 1014.30 1014.58 1014.78 1014.86 1014.85 1014.74 1014.59 1014.44 1014.32 1014.25 1014.25 1014.31 1014.43 1014.59 1014.77 1014.97 1015.18 1015.41 1015.66 1015.93 1016.23 1016.53 1016.81 1017.05 1017.22 1017.31 1017.30 1017.22 1017.08 1016.92 1016.78 1016.69
1011.06 1011.60 1012.04 1012.36 1012.58 1012.74 1012.88 1013.06 1013.30 1013.61 1013.96 1014.31 1014.60 1014.81 1014.89 1014.85 1014.71 1014.52 1014.31 1014.14 1014.03 1014.02 1014.08 1014.21 1014.39 1014.59 1014.81 1015.03 1015.26 1015.52 1015.81 1016.13 1016.48 1016.82 1017.13 1017.38 1017.54 1017.59 1017.53 1017.39 1017.19 1016.99 1016.81
1010.81 1011.42 1011.92 1012.30 1012.55 1012.73 1012.88 1013.06 1013.30 1013.61 1013.96 1014.32 1014.63 1014.85 1014.93 1014.88 1014.72 1014.50 1014.26 1014.05 1013.92 1013.88 1013.93 1014.06 1014.23 1014.43 1014.63 1014.84 1015.05 1015.29 1015.58 1015.91 1016.29 1016.69 1017.07 1017.41 1017.66 1017.79 1017.80 1017.70 1017.51 1017.28 1017.07
1010.56 1011.21 1011.76 1012.19 1012.49 1012.70 1012.86 1013.05 1013.29 1013.60 1013.96 1014.33 1014.65 1014.89 1014.99 1014.95 1014.79 1014.56 1014.30 1014.07 1013.92 1013.86 1013.89 1013.99 1014.14 1014.30 1014.46 1014.62 1014.79 1014.99 1015.24 1015.56 1015.96 1016.39 1016.85 1017.27 1017.61 1017.84 1017.94 1017.91 1017.77 1017.58 1017.38
1010.33 1010.99 1011.59 1012.06 1012.40 1012.63 1012.82 1013.01 1013.26 1013.57 1013.94 1014.32 1014.66 1014.92 1015.05 1015.03 1014.90 1014.68 1014.43 1014.20 1014.03 1013.95 1013.95 1014.01 1014.11 1014.21 1014.31 1014.40 1014.49 1014.63 1014.83 1015.12 1015.50 1015.95 1016.45 1016.93 1017.36 1017.69 1017.88 1017.95 1017.90 1017.78 1017.64
1010.14 1010.81 1011.42 1011.92 1012.29 1012.55 1012.76 1012.96 1013.20 1013.52 1013.89 1014.28 1014.64 1014.93 1015.09 1015.12 1015.02 1014.84 1014.61 1014.40 1014.23 1014.13 1014.09 1014.11 1014.15 1014.18 1014.20 1014.21 1014.22 1014.27 1014.40 1014.63 1014.97 1015.41 1015.90 1016.42 1016.90 1017.31 1017.60 1017.77 1017.83 1017.82 1017.79
1010.02 1010.68 1011.30 1011.81 1012.20 1012.48 1012.69 1012.90 1013.14 1013.45 1013.82 1014.22 1014.59 1014.90 1015.11 1015.18 1015.14 1015.00 1014.82 1014.63 1014.48 1014.37 1014.31 1014.28 1014.26 1014.23 1014.17 1014.09 1014.02 1013.99 1014.03 1014.18 1014.45 1014.83 1015.30 1015.80 1016.30 1016.75 1017.10 1017.37 1017.55 1017.67 1017.77
1009.97 1010.61 1011.23 1011.75 1012.14 1012.43 1012.65 1012.85 1013.09 1013.39 1013.74 1014.14 1014.53 1014.86 1015.10 1015.22 1015.23 1015.16 1015.02 1014.88 1014.75 1014.65 1014.58 1014.53 1014.47 1014.38 1014.26 1014.11 1013.96 1013.85 1013.80 1013.86 1014.04 1014.34 1014.73 1015.18 1015.65 1016.09 1016.48 1016.82 1017.10 1017.35 1017.59
1009.97 1010.60 1011.21 1011.72 1012.12 1012.40 1012.62 1012.82 1013.05 1013.34 1013.68 1014.07 1014.46 1014.81 1015.08 1015.24 1015.31 1015.29 1015.22 1015.13 1015.04 1014.97 1014.91 1014.85 1014.77 1014.65 1014.49 1014.30 1014.10 1013.92 1013.79 1013.76 1013.84 1014.03 1014.31 1014.67 1015.06 1015.46 1015.84 1016.21 1016.57 1016.93 1017.31
1009.99 1010.61 1011.20 1011.70 1012.09 1012.38 1012.60 1012.80 1013.02 1013.31 1013.64 1014.02 1014.41 1014.77 1015.06 1015.27 1015.38 1015.42 1015.41 1015.38 1015.34 1015.31 1015.28 1015.24 1015.17 1015.06 1014.89 1014.69 1014.46 1014.23 1014.05 1013.94 1013.92 1013.99 1014.15 1014.38 1014.67 1014.98 1015.32 1015.68 1016.07 1016.51 1017.00
1009.96 1010.57 1011.15 1011.63 1012.01 1012.30 1012.53 1012.75 1012.99 1013.28 1013.62 1014.00 1014.39 1014.75 1015.06 1015.30 1015.46 1015.56 1015.61 1015.64 1015.66 1015.68 1015.70 1015.70 1015.66 1015.58 1015.44 1015.25 1015.02 1014.78 1014.56 1014.39 1014.28 1014.24 1014.28 1014.39 1014.54 1014.75 1015.01 1015.33 1015.72 1016.19 1016.75
1009.84 1010.43 1010.97 1011.44 1011.82 1012.12 1012.38 1012.63 1012.90 1013.22 1013.58 1013.97 1014.37 1014.75 1015.08 1015.35 1015.55 1015.70 1015.81 1015.90 1015.99 1016.07 1016.14 1016.19 1016.21 1016.17 1016.07 1015.92 1015.72 1015.49 1015.27 1015.06 1014.89 1014.77 1014.70 1014.68 1014.72 1014.82 1014.98 1015.23 1015.58 1016.04 1016.62
1009.57 1010.12 1010.63 1011.08 1011.46 1011.78 1012.08 1012.38 1012.71 1013.08 1013.48 1013.91 1014.33 1014.73 1015.09 1015.38 1015.63 1015.82 1015.99 1016.14 1016.29 1016.43 1016.56 1016.67 1016.73 1016.75 1016.71 1016.60 1016.45 1016.26 1016.06 1015.85 1015.65 1015.48 1015.34 1015.23 1015.16 1015.16 1015.23 1015.40 1015.68 1016.10 1016.65
1009.15 1009.64 1010.10 1010.52 1010.90 1011.26 1011.61 1011.98 1012.38 1012.82 1013.29 1013.76 1014.23 1014.66 1015.04 1015.37 1015.65 1015.90 1016.11 1016.32 1016.52 1016.72 1016.90 1017.06 1017.18 1017.24 1017.25 1017.21 1017.11 1016.97 1016.81 1016.63 1016.44 1016.26 1016.08 1015.92 1015.79 1015.71 1015.70 1015.78 1015.99 1016.34 1016.84
1008.61 1009.02 1009.42 1009.80 1010.18 1010.57 1010.98 1011.43 1011.91 1012.43 1012.97 1013.50 1014.01 1014.48 1014.90 1015.27 1015.59 1015.88 1016.14 1016.40 1016.65 1016.89 1017.11 1017.31 1017.47 1017.58 1017.63 1017.64 1017.60 1017.52 1017.41 1017.29 1017.14 1016.99 1016.83 1016.66 1016.50 1016.37 1016.31 1016.33 1016.46 1016.73 1017.14
1008.02 1008.33 1008.66 1009.00 1009.37 1009.78 1010.25 1010.77 1011.34 1011.94 1012.54 1013.13 1013.69 1014.20 1014.65 1015.06 1015.42 1015.74 1016.05 1016.35 1016.64 1016.92 1017.18 1017.40 1017.58 1017.71 1017.80 1017.84 1017.85 1017.83 1017.80 1017.74 1017.67 1017.58 1017.46 1017.33 1017.19 1017.06 1016.97 1016.94 1017.01 1017.20 1017.51
1007.50 1007.71 1007.95 1008.24 1008.60 1009.03 1009.54 1010.11 1010.74 1011.40 1012.05 1012.69 1013.28 1013.82 1014.30 1014.73 1015.13 1015.49 1015.84 1016.18 1016.51 1016.81 1017.09 1017.33 1017.52 1017.66 1017.77 1017.84 1017.89 1017.92 1017.95 1017.97 1017.99 1017.98 1017.94 1017.88 1017.79 1017.69 1017.60 1017.55 1017.57 1017.68 1017.91
1007.16 1007.27 1007.44 1007.68 1008.01 1008.44 1008.97 1009.57 1010.23 1010.91 1011.59 1012.24 1012.84 1013.39 1013.89 1014.34 1014.76 1015.16 1015.55 1015.92 1016.28 1016.61 1016.91 1017.15 1017.35 1017.49 1017.60 1017.69 1017.77 1017.84 1017.93 1018.03 1018.12 1018.21 1018.26 1018.28 1018.27 1018.21 1018.15 1018.10 1018.09 1018.15 1018.29
1007.10 1007.13 1007.23 1007.43 1007.73 1008.14 1008.66 1009.26 1009.91 1010.59 1011.25 1011.88 1012.46 1013.00 1013.49 1013.95 1014.39 1014.82 1015.24 1015.64 1016.03 1016.39 1016.70 1016.95 1017.15 1017.29 1017.40 1017.50 1017.59 1017.69 1017.83 1017.98 1018.15 1018.32 1018.46 1018.56 1018.62 1018.63 1018.60 1018.56 1018.54 1018.56 1018.64
1007.37 1007.34 1007.39 1007.55 1007.82 1008.20 1008.69 1009.25 1009.86 1010.49 1011.10 1011.68 1012.22 1012.72 1013.19 1013.64 1014.08 1014.53 1014.97 1015.41 1015.83 1016.21 1016.54 1016.81 1017.01 1017.15 1017.26 1017.35 1017.45 1017.57 1017.73 1017.92 1018.15 1018.37 1018.59 1018.76 1018.88 1018.95 1018.96 1018.94 1018.91 1018.90 1018.94
1007.94 1007.89 1007.92 1008.04 1008.28 1008.62 1009.06 1009.57 1010.11 1010.66 1011.20 1011.70 1012.17 1012.61 1013.03 1013.46 1013.89 1014.34 1014.81 1015.27 1015.72 1016.13 1016.48 1016.77 1016.98 1017.13 1017.23 1017.32 1017.42 1017.54 1017.71 1017.92 1018.17 1018.43 1018.69 1018.91 1019.07 1019.18 1019.23 1019.23 1019.20 1019.18 1019.19
1008.76 1008.71 1008.72 1008.83 1009.04 1009.35 1009.73 1010.16 1010.62 1011.08 1011.52 1011.93 1012.31 1012.68 1013.04 1013.43 1013.84 1014.29 1014.77 1015.25 1015.72 1016.16 1016.54 1016.84 1017.07 1017.23 1017.34 1017.42 1017.51 1017.63 1017.79 1018.00 1018.24 1018.51 1018.78 1019.02 1019.22 1019.35 1019.42 1019.44 1019.42 1019.39 1019.38
1009.69 1009.66 1009.69 1009.79 1009.98 1010.25 1010.58 1010.94 1011.31 1011.67 1012.01 1012.32 1012.61 1012.89 1013.20 1013.53 1013.92 1014.35 1014.83 1015.32 1015.81 1016.27 1016.67 1017.00 1017.25 1017.42 1017.54 1017.62 1017.70 1017.80 1017.94 1018.13 1018.35 1018.61 1018.87 1019.11 1019.30 1019.45 1019.53 1019.57 1019.56 1019.54 1019.52
1010.62 1010.61 1010.66 1010.78 1010.96 1011.19 1011.47 1011.76 1012.05 1012.32 1012.56 1012.78 1012.98 1013.19 1013.43 1013.72 1014.07 1014.47 1014.94 1015.43 1015.93 1016.40 1016.82 1017.17 1017.44 1017.63 1017.75 1017.84 1017.91 1017.99 1018.11 1018.26 1018.46 1018.68 1018.92 1019.14 1019.33 1019.48 1019.58 1019.62 1019.63 1019.62 1019.61
1011.40 1011.44 1011.51 1011.63 1011.81 1012.02 1012.26 1012.49 1012.72 1012.91 1013.07 1013.21 1013.34 1013.49 1013.67 1013.90 1014.21 1014.59 1015.03 1015.52 1016.01 1016.49 1016.92 1017.28 1017.57 1017.77 1017.91 1017.99 1018.06 1018.13 1018.22 1018.34 1018.51 1018.70 1018.90 1019.11 1019.29 1019.44 1019.54 1019.61 1019.64 1019.64 1019.64
Thickness
5824 5823 5819 5815 5809 5802 5797 5792 5788 5785 5783 5780 5777 5774 5773 5774 5774 5773 5771 5770 5769 5768 5767 5767 5767 5766 5765 5764 5764 5762 5760 5758 5760 5756 5753 5756 5760 5760 5760 5759 5758 5756 5754
5825 5822 5819 5815 5809 5802 5797 5793 5789 5786 5783 5781 5779 5777 5776 5775 5774 5773 5772 5771 5770 5769 5769 5767 5766 5766 5764 5763 5762 5761 5757 5757 5759 5753 5747 5743 5747 5754 5759 5758 5756 5755 5753
5827 5822 5819 5815 5810 5804 5799 5797 5792 5789 5786 5783 5781 5779 5776 5774 5773 5771 5770 5771 5770 5769 5769 5768 5766 5765 5764 5761 5761 5759 5756 5753 5756 5756 5748 5740 5737 5743 5751 5754 5754 5752 5749
5835 5828 5822 5817 5813 5808 5805 5799 5794 5790 5787 5784 5780 5776 5772 5769 5770 5770 5770 5771 5771 5770 5769 5768 5766 5765 5763 5761 5760 5760 5758 5755 5752 5753 5754 5751 5747 5739 5737 5744 5748 5748 5745
5840 5832 5827 5821 5817 5814 5808 5802 5796 5790 5787 5784 5781 5777 5774 5773 5772 5772 5770 5770 5770 5769 5768 5767 5765 5764 5762 5761 5760 5759 5757 5755 5752 5750 5749 5748 5747 5745 5737 5732 5736 5739 5740
5845 5838 5832 5825 5820 5816 5810 5804 5796 5790 5788 5784 5782 5778 5774 5772 5770 5769 5768 5768 5768 5768 5767 5766 5764 5763 5761 5760 5759 5758 5756 5754 5753 5751 5749 5745 5742 5741 5738 5733 5731 5731 5733
5845 5837 5830 5824 5819 5815 5810 5804 5796 5790 5788 5785 5781 5779 5775 5772 5769 5768 5767 5766 5766 5765 5765 5765 5762 5761 5760 5759 5758 5756 5754 5753 5751 5749 5748 5746 5745 5744 5740 5735 5730 5729 5729
5847 5839 5833 5827 5821 5816 5810 5804 5796 5791 5788 5784 5780 5778 5776 5773 5770 5769 5768 5766 5765 5765 5764 5763 5761 5759 5758 5757 5756 5754 5752 5751 5749 5748 5746 5745 5744 5743 5741 5736 5730 5724 5722
5847 5841 5835 5830 5824 5818 5811 5805 5797 5791 5788 5784 5780 5777 5774 5772 5770 5769 5767 5766 5764 5763 5762 5760 5758 5757 5755 5754 5753 5750 5748 5747 5746 5744 5743 5741 5740 5740 5739 5737 5733 5724 5715
5847 5840 5835 5831 5826 5820 5813 5807 5799 5793 5788 5785 5781 5777 5774 5772 5769 5766 5764 5762 5761 5760 5758 5756 5755 5753 5752 5750 5749 5747 5745 5743 5742 5741 5738 5737 5736 5735 5735 5733 5731 5727 5719
5845 5839 5836 5832 5827 5820 5813 5805 5799 5793 5788 5784 5779 5776 5773 5770 5767 5764 5762 5760 5758 5756 5754 5752 5750 5748 5747 5746 5744 5742 5741 5739 5737 5736 5734 5732 5732 5730 5729 5728 5727 5723 5719
5847 5842 5837 5831 5824 5818 5812 5805 5799 5793 5788 5783 5779 5774 5771 5768 5764 5761 5759 5757 5754 5752 5750 5748 5746 5744 5742 5741 5739 5736 5735 5733 5731 5730 5728 5727 5727 5724 5723 5722 5720 5718 5715
5845 5841 5835 5827 5820 5816 5811 5805 5800 5794 5788 5783 5777 5772 5768 5764 5760 5758 5756 5753 5750 5748 5746 5744 5741 5739 5737 5735 5734 5732 5730 5728 5726 5724 5722 5720 5719 5717 5716 5715 5713 5711 5709
5840 5836 5830 5824 5819 5815 5809 5804 5799 5794 5788 5782 5776 5770 5765 5761 5758 5755 5752 5749 5746 5743 5741 5739 5736 5734 5731 5730 5728 5727 5725 5722 5720 5718 5716 5713 5711 5710 5709 5707 5705 5703 5700
5835 5831 5826 5821 5817 5812 5807 5802 5797 5793 5787 5780 5774 5768 5763 5760 5756 5751 5748 5745 5742 5739 5736 5733 5731 5728 5726 5723 5721 5721 5719 5717 5714 5712 5709 5706 5704 5702 5701 5699 5696 5695 5691
5830 5828 5824 5818 5813 5809 5804 5799 5795 5790 5785 5777 5771 5766 5761 5756 5752 5748 5745 5741 5737 5734 5731 5728 5724 5721 5718 5715 5715 5715 5713 5711 5708 5705 5703 5701 5698 5695 5693 5690 5688 5686 5682
5825 5823 5821 5817 5812 5809 5804 5797 5792 5787 5781 5774 5769 5763 5758 5752 5748 5745 5740 5736 5732 5728 5725 5721 5718 5714 5711 5710 5709 5708 5708 5705 5702 5699 5696 5695 5691 5688 5685 5683 5680 5677 5674
5824 5823 5820 5815 5812 5808 5802 5796 5791 5784 5777 5770 5765 5760 5755 5749 5744 5740 5735 5731 5728 5723 5719 5716 5712 5709 5705 5704 5703 5702 5702 5699 5695 5692 5689 5685 5682 5680 5677 5675 5672 5668 5665
5827 5823 5820 5815 5810 5804 5799 5792 5785 5779 5772 5766 5760 5756 5751 5745 5739 5734 5730 5726 5723 5718 5715 5711 5707 5703 5699 5698 5697 5697 5696 5692 5687 5684 5680 5678 5674 5672 5670 5668 5664 5660 5657
5822 5819 5816 5812 5805 5800 5795 5787 5779 5773 5767 5762 5757 5753 5748 5741 5736 5731 5727 5723 5718 5714 5710 5705 5702 5698 5694 5692 5692 5692 5691 5686 5681 5677 5673 5669 5667 5665 5663 5660 5657 5652 5650
5817 5814 5810 5804 5799 5796 5789 5780 5774 5768 5764 5760 5754 5748 5743 5737 5732 5728 5723 5719 5714 5710 5705 5700 5697 5693 5689 5686 5685 5684 5684 5681 5677 5672 5666 5662 5659 5657 5655 5653 5649 5645 5643
5808 5806 5800 5795 5792 5789 5782 5774 5768 5765 5761 5754 5748 5743 5738 5734 5728 5723 5718 5714 5710 5704 5700 5695 5691 5688 5684 5681 5679 5677 5675 5674 5670 5665 5661 5656 5653 5650 5648 5645 5642 5640 5638
5799 5797 5792 5787 5784 5781 5776 5768 5764 5761 5755 5748 5742 5737 5733 5729 5724 5718 5713 5709 5705 5701 5697 5693 5688 5684 5680 5675 5673 5671 5668 5666 5662 5658 5654 5650 5646 5643 5641 5638 5636 5634 5632
5789 5787 5783 5778 5774 5772 5769 5764 5759 5755 5748 5741 5736 5731 5727 5722 5718 5714 5710 5706 5701 5698 5694 5690 5686 5681 5675 5671 5668 5665 5661 5657 5654 5651 5647 5643 5640 5637 5635 5632 5630 5627 5624
5780 5778 5774 5770 5767 5765 5761 5758 5753 5748 5741 5735 5730 5726 5721 5716 5711 5706 5701 5698 5693 5692 5689 5687 5683 5677 5671 5664 5661 5659 5655 5652 5647 5644 5642 5639 5635 5632 5630 5627 5624 5621 5617
5771 5769 5766 5763 5761 5758 5753 5751 5747 5742 5735 5729 5724 5721 5717 5711 5705 5699 5692 5685 5684 5681 5680 5678 5675 5669 5664 5658 5655 5652 5648 5644 5641 5638 5636 5634 5631 5628 5624 5621 5617 5613 5609